Location: Bright Sky Observatory
(40.7821°N, 74.2425°W)
Time: 22:21:22
(UTC-05:00)

Daily predictions for brighter satellites

Satellite Brightness Start Highest point End
(mag) Time Altitude Azimuth Time Altitude Azimuth Time Altitude Azimuth
BREEZE-M R/B 3.6 17:18:05 10° SW 17:21:50 73° SE 17:33:48 10° ENE
CORIOLIS 4.1 17:17:46 10° SSE 17:23:03 66° ENE 17:28:22 10° N
Cosmos 1503 Rocket 4.0 17:20:53 10° NNW 17:26:13 72° ENE 17:31:33 10° SSE
YAOGAN 1 3.0 17:23:51 10° SE 17:27:54 41° ENE 17:31:59 10° N
CSL-04 Rocket 3.9 17:23:31 10° SSE 17:29:05 85° WSW 17:34:39 10° NNW
Cosmos 1484 Rocket 3.2 17:26:31 10° S 17:30:19 68° WSW 17:34:05 10° NNW
Cosmos 1300 3.8 17:27:47 10° NNE 17:30:54 23° ENE 17:33:59 10° SE
NOSS 2-1 (C) 3.5 17:30:41 10° SW 17:34:21 69° NW 17:38:21 10° NNE
Meteor 2-21 4.4 17:28:25 10° N 17:34:31 72° E 17:40:33 10° SSE
NOSS 2-1 (D) 3.5 17:31:22 10° SW 17:34:59 66° NW 17:39:00 10° NNE
Cosmos 1943 Rocket 2.4 17:31:17 10° NNW 17:36:43 48° ENE 17:42:03 10° SE
Cosmos 1992 Rocket 4.0 17:33:19 10° SSW 17:38:29 76° ESE 17:43:42 10° NNE
SL-8 Rocket 4.2 17:35:00 10° N 17:40:55 46° ENE 17:46:51 10° SSE
Cosmos 2218 Rocket 4.4 17:36:02 10° N 17:41:45 38° ENE 17:47:24 10° SE
Cosmos 1315 Rocket 3.9 17:40:11 10° SE 17:43:19 23° E 17:46:27 10° NE
ALOS 2.6 17:41:15 10° SE 17:45:37 42° ENE 17:50:00 10° N
ERS-2 3.4 17:43:15 10° ESE 17:46:05 21° ENE 17:48:55 10° NNE
NOAA 12 4.5 17:41:58 10° SE 17:46:48 40° ENE 17:51:41 10° N
Cosmos 1346 Rocket 4.4 17:47:40 10° NE 17:49:49 14° ENE 17:50:29 14° E
IRS-1A Rocket 4.2 17:46:13 10° SSE 17:51:43 81° ENE 17:57:21 10° NNW
BREEZE-M DEB (TANK) 2.3 17:47:07 10° SW 17:53:30 85° SE 17:55:33 17° ENE
Cosmos 2221 2.5 17:49:57 10° N 17:54:19 79° E 17:58:42 10° S
ATLAS 2AS CENTAUR R/B 3.0 17:47:29 10° NW 17:55:28 88° WSW 18:02:45 10° SSE
BREEZE M DEB (TANK) 4.2 17:51:40 10° WSW 17:56:08 82° NNW 18:12:16 13° ENE
Cosmos 1908 4.5 17:53:09 10° NNW 17:56:52 45° W 18:00:33 10° SSW
Cosmos 968 Rocket 3.4 17:52:46 10° NNW 17:57:53 60° ENE 18:02:55 10° SSE
FENGYUN 3A 3.7 17:54:00 10° SSE 17:59:13 58° ENE 18:04:29 10° N
Meteor 1-21 Rocket 4.4 17:53:27 10° S 17:59:20 87° W 18:05:18 10° N
CZ-4 R/B 4.4 17:56:02 10° SSE 18:00:09 89° WSW 18:04:18 10° NNW
Tiangong 1 0.8 17:58:53 10° W 18:01:19 49° N 18:02:20 27° ENE
Cosmos 1408 Rocket 4.2 17:59:19 10° SSE 18:03:08 32° E 18:06:58 10° NNE
NOSS 2-1 (E) 4.5 17:59:51 10° WSW 18:03:21 39° NW 18:07:18 10° NNE
COSMO-SKYMED 1 2.5 18:02:47 10° NNE 18:07:09 85° E 18:11:30 10° SSW
SL-24 R/B - RUBIN 2 4.4 18:05:36 10° NNW 18:09:39 30° NE 18:11:35 21° E
Meteor 2-2 Rocket 4.4 18:04:33 10° N 18:10:07 47° ENE 18:15:32 10° SSE
H-2A R/B 3.5 18:07:02 10° SE 18:10:21 30° ENE 18:13:44 10° N
MOS 1 4.2 18:08:33 10° SSE 18:14:11 83° ENE 18:19:52 10° NNW
Cosmos 1328 3.9 18:10:32 10° S 18:14:26 53° E 18:18:22 10° NNE
Cosmos 1400 Rocket 3.3 18:10:55 10° SSW 18:14:54 64° W 18:18:59 10° N
NOSS 3-4 (A) 4.1 18:11:10 10° NNW 18:17:51 45° NE 18:24:32 12° ESE
NOSS 3-4 (C) 4.1 18:11:17 10° NNW 18:17:57 45° NE 18:24:30 12° ESE
Cosmos 1726 3.5 18:17:07 10° NNW 18:20:35 40° W 18:24:01 10° SSW
Cosmos 1943 4.1 18:15:48 10° SW 18:21:13 48° WNW 18:26:40 10° NNE
MTI 4.1 18:18:12 10° N 18:21:24 64° WNW 18:24:33 10° SSW
Cosmos 2366 rocket 3.9 18:15:36 10° N 18:21:51 72° E 18:28:01 10° SSE
Meteor 2-8 Rocket 4.4 18:16:21 10° S 18:22:27 74° E 18:28:36 10° NNE
Cosmos 2058 4.3 18:20:22 10° SE 18:22:32 21° ESE 18:22:32 21° ESE
Cosmos 2151 4.4 18:22:37 10° SE 18:24:39 21° ESE 18:24:39 21° ESE
Cosmos 1076 Rocket 4.1 18:23:49 10° SSW 18:28:07 60° W 18:32:27 10° N
Cosmos 1743 Rocket 4.4 18:24:36 10° SSE 18:27:51 29° ESE 18:27:51 29° ESE
Thor Agena Rocket 4.2 18:30:23 28° ENE 18:32:00 34° E 18:36:43 10° SSE
Cosmos 44 3.0 18:30:04 10° SSW 18:34:15 56° ESE 18:35:33 39° ENE
EO 1 Del DPAF 3.5 18:32:12 10° N 18:36:01 69° WNW 18:39:49 10° SSW
Cosmos 1328 Rocket 3.7 18:32:37 10° N 18:36:52 47° E 18:41:03 10° SSE
Nadezhda 3 Rocket 4.2 18:31:55 10° SSE 18:37:51 46° E 18:43:52 10° NNE
Cosmos 1703 3.3 18:41:56 10° S 18:45:33 55° ESE 18:45:33 55° ESE
Cosmos 1766 Rocket 3.8 18:42:32 10° SSW 18:46:50 67° W 18:51:09 10° N
SPOT 3 Rocket 4.1 18:44:08 10° S 18:49:11 59° WSW 18:54:18 10° NNW
Cosmos 44 Rocket 3.0 18:50:36 10° SSW 18:55:14 74° ESE 18:55:59 60° ENE
OAO 3 Rocket 3.9 18:54:25 10° WSW 18:58:51 42° S 18:59:43 38° SSE
USA 81 3.9 18:56:03 10° S 19:01:14 64° E 19:02:38 46° NNE
Cosmos 1626 3.0 19:00:58 10° SSW 19:04:33 47° W 19:05:54 31° NNW
GEOS 3 Rocket 3.6 19:06:07 36° SE 19:08:25 88° SW 19:13:50 10° NW
Cosmos 1777 Rocket 4.1 19:05:20 10° NNW 19:10:34 74° WSW 19:15:48 10° S
Cosmos 1656 Rocket 4.1 19:12:04 10° NNW 19:17:27 60° WSW 19:22:52 10° S
ERS-2 4.5 19:16:35 10° SSW 19:19:36 24° W 19:22:39 10° NW
Cosmos 1943 Rocket 4.5 19:15:46 10° NW 19:20:04 23° W 19:24:20 10° SSW
Cosmos 2239 Rocket 4.3 19:19:31 10° N 19:32:40 - S 19:25:37 76° ENE
Cosmos 1346 Rocket 4.1 19:22:44 10° NNW 19:26:24 38° W 19:26:32 38° W
Cosmos 2098 Rocket 4.3 19:22:54 10° NNW 19:27:51 55° W 19:33:59 10° S
COSMOS 2406 3.5 19:38:31 10° SSW 19:43:50 66° W 19:43:50 66° W
